Regional Weather Roundup
Issued by NWS

Home | Current Version | Previous Version | Graphics & Text | Print | Product List | Glossary On
Versions: 1 2 3 4 5 6 7 8 9 10 11 12 13 14 15 16 17 18 19 20 21 22 23 24 25 26 27 28 29 30 31 32 33 34 35 36 37 38 39 40 41 42 43 44 45 46 47 48 49 50
000
ASUS43 KLSX 201607
RWRMO

WEATHER SUMMARY FOR MISSOURI
NATIONAL WEATHER SERVICE SPRINGFIELD MO
1100 AM CDT FRI APR 20 2018

NOTE: "FAIR" INDICATES FEW OR NO CLOUDS BELOW 12,000 FEET WITH NO
       SIGNIFICANT WEATHER AND/OR OBSTRUCTIONS TO VISIBILITY.
       CURRENT SKY AND/OR WEATHER CONDITIONS ARE NOT AVAILABLE FOR
       CHILLICOTHE AND FARMINGTON.

MOZ001>031-035>038-043-044-053-054-201700-
...NORTHERN AND WESTERN MISSOURI...

CITY           SKY/WX    TMP DP  RH WIND       PRES   REMARKS
KANSAS CTY INT CLOUDY    55  30  38 SE18      30.42F
KANSAS C DTWN  CLOUDY    57  30  35 SE12      30.41F
LEE`S SUMMIT   MOSUNNY   53  30  41 SE14      30.43F
ST JOSEPH      CLOUDY    56  31  38 SE15G24   30.42F
CHILLICOTHE      N/A     56  31  38 SE7G18    30.47F
KIRKSVILLE     SUNNY     55  29  36 SE10      30.50F

$$
MOZ066>068-077>081-088>096-101>105-201700-
...SOUTHWEST MISSOURI...

CITY           SKY/WX    TMP DP  RH WIND       PRES   REMARKS
SPRINGFIELD    SUNNY     55  29  36 E14       30.39F
JOPLIN         MOSUNNY   55  33  43 E13G23    30.38F
BRANSON        MOSUNNY   52  32  46 SE13G20   30.42F

$$
MOZ032>034-039>042-045>050-055>058-069>072-201700-
...CENTRAL MISSOURI...

CITY           SKY/WX    TMP DP  RH WIND       PRES   REMARKS
COLUMBIA       SUNNY     55  27  34 SE10G21   30.48F
JEFFERSON CITY SUNNY     53  25  33 CALM      30.48F
ROLLA          SUNNY     52  24  33 E7G18     30.47S
SEDALIA        SUNNY     56  31  38 SE14      30.46F
WHITEMAN AFB   PTSUNNY   54  29  38 SE12G18   30.40F
WARRENSBURG    CLOUDY    55  30  38 E12       30.44F
OSAGE BEACH    SUNNY     55  28  35 E13G18    30.46F

$$
MOZ051-052-059>065-201700-
...EAST CENTRAL MISSOURI...

CITY           SKY/WX    TMP DP  RH WIND       PRES   REMARKS
ST LOUIS INTL  MOSUNNY   54  16  22 E15       30.50S
SPIRIT OF STL  SUNNY     56  15  20 E9        30.48F
ST CHARLES     SUNNY     55  22  27 E16G23    30.50S

$$
MOZ072>076-082>087-097>100-106>115-201700-
...SOUTH CENTRAL AND SOUTHEAST MISSOURI...

CITY           SKY/WX    TMP DP  RH WIND       PRES   REMARKS
CAPE GIRARDEAU FAIR      57  25  29 NE12      30.46F
FARMINGTON     SUNNY     54  21  27 E10       30.47F
POPLAR BLUFF   FAIR      56  28  34 NE12      30.46S
WEST PLAINS    SUNNY     54  26  34 E8        30.45S

$$



USA.gov is the U.S. government's official web portal to all federal, state and local government web resources and services.